Regional Weather Roundup
Issued by NWS

Home | Current Version | Previous Version | Text Only | Print | Product List | Glossary Off
Versions: 1 2 3 4 5 6 7 8 9 10 11 12 13 14 15 16 17 18 19 20 21 22 23 24 25 26 27 28 29 30 31 32 33 34 35 36 37 38 39 40 41 42 43 44 45 46 47 48 49 50

000
ASUS43 KMKX 170410
RWRWI

WISCONSIN REGIONAL WEATHER ROUNDUP
NATIONAL WEATHER SERVICE MILWAUKEE/SULLIVAN WI
1000 PM CST FRI FEB 16 2018

NOTE: "FAIR" INDICATES FEW OR NO CLOUDS BELOW 12,000 FEET WITH NO
SIGNIFICANT WEATHER AND/OR OBSTRUCTIONS TO VISIBILITY.

WIZ001-002-006>008-014>016-023>028-170500-
NORTHWEST WISCONSIN

CITY           SKY/WX    TMP DP  RH WIND       PRES   REMARKS
SUPERIOR ARPT  FAIR      15   2  54 SW15G21   29.97F WCI   0
ASHLAND        FAIR      12  -3  51 SW15      29.99F WCI  -4
HAYWARD        FAIR      10  -2  58 S12       30.01F WCI  -5
SIREN          FAIR      14   3  63 S12       30.02F WCI   0
CUMBERLAND     FAIR       5  -2  72 S8        30.03F WCI  -8
RICE LAKE      FAIR       9  -1  65 SE6       30.07F WCI  -1
CHETEK         FAIR      10  -1  61 S6        30.07F WCI   1
LADYSMITH      FAIR       8  -4  56 S6        30.08F WCI  -2
EAU CLAIRE     FAIR      11   0  61 S7        30.10F WCI   0
MENOMONIE      FAIR       8  -1  68 E5        30.10F WCI  -1
NEW RICHMOND   FAIR      12   4  71 S10       30.05F WCI  -1
OSCEOLA        FAIR      10   3  72 S6        30.08F WCI   1
$$

WIZ003>005-009-010-017-018-170500-
NORTH CENTRAL WISCONSIN

CITY           SKY/WX    TMP DP  RH WIND       PRES   REMARKS
MANITOWISH WTR FAIR       7  -8  51 SW12      30.00F WCI  -9
ARBOR VITAE    FAIR       8  -6  51 S6        30.01F WCI  -2
WOODRUFF       FAIR       8  -6  51 S6        30.01F WCI  -2
RHINELANDER    FAIR       8  -7  50 SW12      30.05S WCI  -7
EAGLE RIVER    FAIR       8 -10  42 SW9       30.02F WCI  -5
LAND O LAKES   FAIR       9 -10  43 SW7       30.02F WCI  -3
PHILLIPS       FAIR       7  -7  54 SW7       30.03F WCI  -5
TOMAHAWK       FAIR       8  -8  49 S3        30.06F
MEDFORD        FAIR       7  -8  50 S7        30.07F WCI  -4
MERRILL        FAIR       9  -6  50 SW7       30.10F WCI  -2
$$

WIZ029-030-035-036-043>047-170500-
CENTRAL WISCONSIN

CITY           SKY/WX    TMP DP  RH WIND       PRES   REMARKS
WAUSAU         FAIR       9  -6  50 CALM      30.11F
MOSINEE        PTCLDY     9  -2  61 S7        30.13F WCI  -3
MARSHFIELD     FAIR      10  -4  53 SW8       30.10F WCI  -2
STEVENS POINT  FAIR      11  -1  58 SW6       30.15F WCI   2
WAUPACA        FAIR      15   2  55 S3        30.18F
WAUTOMA        NOT AVBL
WISC RAPIDS    FAIR      14  -1  51 SW8       30.16F WCI   3
CAMP DOUGLAS   FAIR      16   2  55 SW7       30.17F WCI   6
$$

WIZ011>013-019>022-031-037>040-048>050-170500-
NORTHEAST WISCONSIN

CITY           SKY/WX    TMP DP  RH WIND       PRES   REMARKS
ANTIGO         FAIR       6  -6  57 SW8       30.08F WCI  -6
SHAWANO        FAIR      15   0  50 CALM      30.16F
OCONTO         FAIR      15  -1  49 SW5       30.17S WCI   7
STURGEON BAY   FAIR      16   1  51 SW8       30.16F WCI   5
GREEN BAY      FAIR      19   2  47 SW7       30.18F WCI  10
MANITOWOC      FAIR      17   5  59 SW5       30.20F WCI  10
APPLETON       PTCLDY    16   0  48 SW7       30.16F WCI   6
CLINTONVILLE   FAIR      14   1  55 SW5       30.16F WCI   7
OSHKOSH        FAIR      17   4  56 SW6       30.18F WCI   9
$$

WIZ032>034-041-042-053>061-170500-
SOUTHWEST WISCONSIN

CITY           SKY/WX    TMP DP  RH WIND       PRES   REMARKS
LA CROSSE      FAIR      18   6  59 S10       30.19F WCI   6
SPARTA         FAIR      15   6  65 CALM      30.19F
VIROQUA        FAIR      13   7  75 S6        30.16F WCI   4
BOSCOBEL       FAIR      15   4  61 S3        30.24F
PRAIRIE DU CHI FAIR      15   4  61 CALM      30.23F
PLATTEVILLE    FAIR      12   5  74 SW5       30.22F WCI   4
$$

WIZ056-057-062-063-064-067-068-170500-
SOUTH CENTRAL WISCONSIN

CITY           SKY/WX    TMP DP  RH WIND       PRES   REMARKS
REEDSBURG      FAIR      16   3  56 SW3       30.20F
BARABOO/DELLS  FAIR      16   3  57 SW3       30.19F
LONE ROCK      FAIR      14   4  64 W5        30.24S WCI   6
MINERAL POINT  FAIR      14   9  79 SW3       30.20F
MADISON        FAIR      16   4  59 W3        30.22F
MIDDLETON      FAIR      18   6  61 W7        30.22F WCI   8
WATERTOWN      FAIR      16   5  63 SW3       30.21F
MONROE         FAIR      16   7  67 W10       30.21F WCI   3
JANESVILLE     FAIR      18   7  62 CALM      30.23F
$$

WIZ051-052-058>065-066-070>072-170500-
SOUTHEAST WISCONSIN

CITY           SKY/WX    TMP DP  RH WIND       PRES   REMARKS
MILWAUKEE      FAIR      21   8  57 W7        30.23F WCI  12
WAUKESHA       FAIR      16   5  62 SW6       30.22F WCI   7
MILWAUKEE/TIMM FAIR      18   3  53 SW7       30.23S WCI   8
RACINE         FAIR      20   9  62 W6        30.25F WCI  12
BURLINGTON     FAIR      18   9  68 SW3       30.23S
KENOSHA        FAIR      19   9  65 W7        30.24F WCI  10
FOND DU LAC    FAIR      17   3  54 SW7       30.19S WCI   8
SHEBOYGAN      FAIR      16   7  67 SW3       30.20S
WEST BEND      FAIR      18   5  57 W3        30.20F
JUNEAU         FAIR      15   6  66 SW6       30.21F WCI   6
$$

LSZ147-162-170500-
LAKE SUPERIOR

STATION/POSITION TIME  TEMP    WIND        PRES    WAVE
                       AIR SEA DIR/SP/G            HT/PER
                 (UTC) (F)     (DEG/KT/KT) (MB)    (FT/S)
DEVILS ISLAND    0400   14     200/  8/ 12 1016.2F
SAXON HARBOR     0340   15     200/ 11/ 15 1015.2F
$$

LMZ867-665-643>646-170500-
LAKE MICHIGAN

STATION/POSITION TIME  TEMP    WIND        PRES    WAVE
                       AIR SEA DIR/SP/G            HT/PER
                 (UTC) (F)     (DEG/KT/KT) (MB)    (FT/S)
NORTHPORT PIER   0402   17                 1020.7
KEWAUNEE LAKESHO 0342   19     210/  6/  7 1021.5F
SHEBOYGAN LAKESH 0400   20     250/  5/  6 1023.9S
PORT WASHINGTON  0330   20     240/  4/  7 1024.7R
MILWAUKEE LAKESH 0350   23     260/  8/  9   N/A
KENOSHA   LAKESH 0400   21     260/  6/  9 1024.7
$$

TC  - TEMPERATURE IN CELSIUS
VSB - VISIBILITY IN STATUTE MILES
WCI - WIND CHILL INDEX
HX  - HEAT INDEX





USA.gov is the U.S. government's official web portal to all federal, state and local government web resources and services.